TimeEDT,TemperatureF,Dew PointF,Humidity,Sea Level PressureIn,VisibilityMPH,Wind Direction,Wind SpeedMPH,Gust SpeedMPH,PrecipitationIn,Events,Conditions,WindDirDegrees,DateUTC
12:53 AM,73.9,71.1,91,30.05,10.0,East,6.9,-,N/A,,Clear,80,2013-10-02 04:53:00
1:53 AM,73.9,71.1,91,30.06,10.0,East,4.6,-,N/A,,Clear,90,2013-10-02 05:53:00
2:53 AM,72.0,70.0,93,30.04,10.0,ENE,4.6,-,N/A,,Clear,70,2013-10-02 06:53:00
3:53 AM,72.0,70.0,93,30.03,10.0,East,5.8,-,N/A,,Clear,80,2013-10-02 07:53:00
4:53 AM,71.1,69.1,93,30.02,10.0,ENE,5.8,-,N/A,,Clear,70,2013-10-02 08:53:00
5:53 AM,72.0,70.0,93,30.01,10.0,ENE,8.1,-,N/A,,Clear,60,2013-10-02 09:53:00
6:53 AM,72.0,70.0,93,30.03,10.0,ENE,6.9,-,N/A,,Clear,60,2013-10-02 10:53:00
7:53 AM,72.0,70.0,93,30.04,10.0,ENE,3.5,-,N/A,,Clear,70,2013-10-02 11:53:00
8:53 AM,77.0,71.1,82,30.05,10.0,ENE,9.2,-,N/A,,Clear,70,2013-10-02 12:53:00
9:53 AM,82.0,72.0,71,30.06,10.0,East,12.7,-,N/A,,Clear,80,2013-10-02 13:53:00
10:53 AM,82.9,70.0,65,30.06,10.0,East,13.8,-,N/A,,Clear,100,2013-10-02 14:53:00
11:53 AM,86.0,71.1,61,30.06,10.0,East,11.5,-,N/A,,Clear,90,2013-10-02 15:53:00
12:53 PM,87.1,70.0,57,30.04,10.0,ESE,11.5,-,N/A,,Clear,110,2013-10-02 16:53:00
1:53 PM,89.1,69.1,52,30.02,10.0,East,15.0,-,N/A,,Clear,100,2013-10-02 17:53:00
2:53 PM,90.0,66.9,46,30.01,10.0,ESE,13.8,-,N/A,,Scattered Clouds,110,2013-10-02 18:53:00
3:53 PM,90.0,66.9,46,29.98,10.0,East,9.2,-,N/A,,Scattered Clouds,80,2013-10-02 19:53:00
4:53 PM,88.0,69.1,53,29.98,10.0,East,10.4,-,N/A,,Partly Cloudy,80,2013-10-02 20:53:00
5:53 PM,87.1,69.1,55,29.99,10.0,East,10.4,-,N/A,,Clear,100,2013-10-02 21:53:00
6:53 PM,84.0,69.1,61,30.01,10.0,ESE,8.1,-,N/A,,Mostly Cloudy,110,2013-10-02 22:53:00
7:53 PM,82.9,70.0,65,30.03,10.0,ESE,10.4,-,N/A,,Overcast,110,2013-10-02 23:53:00
8:53 PM,81.0,71.1,72,30.04,10.0,East,8.1,-,N/A,,Scattered Clouds,90,2013-10-03 00:53:00
9:53 PM,80.1,71.1,74,30.05,10.0,East,8.1,-,N/A,,Clear,90,2013-10-03 01:53:00
10:53 PM,79.0,71.1,77,30.06,10.0,East,8.1,-,N/A,,Clear,100,2013-10-03 02:53:00
11:53 PM,78.1,71.1,79,30.07,10.0,East,8.1,-,N/A,,Mostly Cloudy,100,2013-10-03 03:53:00